Regional Weather Roundup
Issued by NWS

Home | Current Version | Previous Version | Graphics & Text | Print | Product List | Glossary On
Versions: 1 2 3 4 5 6 7 8 9 10 11 12 13 14 15 16 17 18 19 20 21 22 23 24 25 26 27 28 29 30 31 32 33 34 35 36 37 38 39 40 41 42 43 44 45 46 47 48 49 50
000
ASUS43 KLSX 281707
RWRMO

WEATHER SUMMARY FOR MISSOURI
NATIONAL WEATHER SERVICE SPRINGFIELD MO
1100 AM CST WED JAN 28 2015

NOTE: "FAIR" INDICATES FEW OR NO CLOUDS BELOW 12,000 FEET WITH NO
       SIGNIFICANT WEATHER AND/OR OBSTRUCTIONS TO VISIBILITY.
       CURRENT SKY AND/OR WEATHER CONDITIONS ARE NOT AVAILABLE FOR
       CHILLICOTHE AND FARMINGTON.

MOZ001>031-035>038-043-044-053-054-281800-
...NORTHERN AND WESTERN MISSOURI...

CITY           SKY/WX    TMP DP  RH WIND       PRES   REMARKS
KANSAS CTY INT PTSUNNY   59  37  44 S13       29.88F
KANSAS C DTWN  SUNNY     60  36  40 S13       29.90F
LEE`S SUMMIT   SUNNY     58  36  43 S16G25    29.92F
ST JOSEPH        N/A    N/A N/A N/A MISG      29.87F
CHILLICOTHE      N/A     48  36  63 S13       29.95F
KIRKSVILLE     SUNNY     39  33  79 SE18      30.00F WCI  30

$$
MOZ066>068-077>081-088>096-101>105-281800-
...SOUTHWEST MISSOURI...

CITY           SKY/WX    TMP DP  RH WIND       PRES   REMARKS
SPRINGFIELD    SUNNY     51  35  54 S17       30.06F
JOPLIN         SUNNY    N/A N/A N/A S20G30    30.00F

$$
MOZ032>034-039>042-045>050-055>058-069>072-281800-
...CENTRAL MISSOURI...

CITY           SKY/WX    TMP DP  RH WIND       PRES   REMARKS
COLUMBIA       SUNNY     47  34  60 S18       30.05F
JEFFERSON CITY SUNNY     47  32  56 SE20      30.07F
ROLLA          SUNNY     44  31  60 S21G30    30.09F
SEDALIA        LGT RAIN  55  36  48 S18       30.01S
WHITEMAN AFB   MOSUNNY   55  38  51 S16G23    29.97S
WARRENSBURG    SUNNY     57  36  44 S17       29.96F
OSAGE BEACH    SUNNY     50  34  53 S13G23    30.06F

$$
MOZ051-052-059>065-281800-
...EAST CENTRAL MISSOURI...

CITY           SKY/WX    TMP DP  RH WIND       PRES   REMARKS
ST LOUIS INTL  MOSUNNY   39  26  59 SE20G29   30.20F WCI  29
SPIRIT OF STL  MOSUNNY   41  27  57 SE15G21   30.17F
ST CHARLES     SUNNY     39  29  67 SE16      30.19F

$$
MOZ072>076-082>087-097>100-106>115-281800-
...SOUTH CENTRAL AND SOUTHEAST MISSOURI...

CITY           SKY/WX    TMP DP  RH WIND       PRES   REMARKS
CAPE GIRARDEAU SUNNY     39  30  70 SE14      30.30F
FARMINGTON     SUNNY     39  27  60 S18       30.24F WCI  30
POPLAR BLUFF   SUNNY     40  30  67 S10       30.28F
WEST PLAINS    SUNNY     43  31  62 SE13      30.20F

$$


USA.gov is the U.S. government's official web portal to all federal, state and local government web resources and services.